Change the Weather History Date:

Sunday, October 7, 2012

  Actual Average Record
Temperature  
Mean Temperature 67 °F 78 °F  
Max Temperature 76 °F 88 °F 102 °F (1931)
Min Temperature 58 °F 68 °F 44 °F (1906)
Degree Days  
Heating Degree Days 0 0  
Month to date heating degree days 0 0  
Since 1 July heating degree days 0 1  
Cooling Degree Days 2 13  
Month to date cooling degree days 99 96  
Year to date cooling degree days 4529 3881  
Growing Degree Days 16 (Base 50)    
Moisture  
Dew Point 53 °F    
Average Humidity 72    
Maximum Humidity 86    
Minimum Humidity 64    
Precipitation  
Precipitation T in 0.08 in 3.34 in (1981)
Month to date precipitation T 0.57  
Year to date precipitation 8.76 16.49  
Sea Level Pressure  
Sea Level Pressure 30.11 in    
Wind  
Wind Speed 12 mph (NNE)    
Max Wind Speed 24 mph    
Max Gust Speed 31 mph    
Visibility 9 miles    
Events Rain    
T = Trace of Precipitation, MM = Missing Value Source: NWS Daily Summary

Daily Weather History Graph

Daily Weather History Graph

Search for Another Location

Airport or City:

Trip Planner

Search our weather history database for the weather conditions in past years. The results will help you decide how hot, cold, wet, or windy it might be!

Date:

Astronomy

Oct. 07, 2012 Rise Set
Actual Time 7:33 AM CDT 7:16 PM CDT
Civil Twilight 7:10 AM CDT 7:40 PM CDT
Nautical Twilight 6:43 AM CDT 8:07 PM CDT
Astronomical Twilight 6:16 AM CDT 8:34 PM CDT
Moon No Moon Rise 1:51 PM CDT (10/7)
Length of Visible Light 12h 29m
Length of Day
11h 42m
Waning Gibbous, 56% of the Moon is Illuminated
Oct 7
Waning Gibbous
Oct 8
Last Quarter
Oct 15
New
Oct 21
First Quarter
Oct 29
Full

Hourly Weather History & Observations

Time (CDT) Temp. Dew Point Humidity Pressure Visibility Wind Dir Wind Speed Gust Speed Precip Events Conditions
12:56 AM 75.9 °F 64.9 °F 69% 29.99 in 10.0 mi ENE 11.5 mph - N/A   Mostly Cloudy
1:56 AM 70.0 °F 59.9 °F 70% 30.00 in 10.0 mi NE 18.4 mph - N/A   Partly Cloudy
2:24 AM 69.8 °F 59.0 °F 68% 30.04 in 10.0 mi NE 17.3 mph - N/A   Mostly Cloudy
2:49 AM 68.0 °F 57.2 °F 68% 30.04 in 10.0 mi ENE 20.7 mph - N/A   Scattered Clouds
2:56 AM 68.0 °F 57.9 °F 70% 30.01 in 10.0 mi ENE 15.0 mph - N/A   Scattered Clouds
3:56 AM 64.9 °F 55.9 °F 73% 30.03 in 10.0 mi NE 17.3 mph - N/A   Partly Cloudy
4:56 AM 63.0 °F 54.9 °F 75% 30.03 in 10.0 mi NE 15.0 mph 21.9 mph N/A   Mostly Cloudy
5:15 AM 62.6 °F 53.6 °F 72% 30.07 in 10.0 mi NE 16.1 mph - N/A   Mostly Cloudy
5:56 AM 63.0 °F 54.0 °F 72% 30.05 in 10.0 mi NE 15.0 mph - N/A   Overcast
6:56 AM 61.0 °F 52.9 °F 75% 30.07 in 10.0 mi NE 19.6 mph 26.5 mph N/A   Overcast
7:56 AM 61.0 °F 50.9 °F 69% 30.10 in 10.0 mi NE 16.1 mph - N/A   Overcast
8:56 AM 59.9 °F 48.9 °F 67% 30.14 in 10.0 mi NE 18.4 mph - N/A   Overcast
9:56 AM 59.9 °F 48.9 °F 67% 30.16 in 10.0 mi NE 16.1 mph - N/A   Overcast
10:56 AM 59.9 °F 47.8 °F 64% 30.18 in 10.0 mi North 13.8 mph - N/A   Overcast
11:56 AM 59.9 °F 47.8 °F 64% 30.19 in 10.0 mi North 12.7 mph - 0.00 in   Overcast
12:56 PM 59.9 °F 48.9 °F 67% 30.19 in 10.0 mi North 10.4 mph - N/A   Overcast
1:56 PM 59.0 °F 50.9 °F 74% 30.17 in 5.0 mi North 10.4 mph - 0.00 in Rain Light Rain
2:56 PM 57.9 °F 52.0 °F 81% 30.15 in 5.0 mi North 10.4 mph - 0.00 in Rain Light Rain
3:42 PM 57.2 °F 53.6 °F 88% 30.15 in 3.0 mi NNW 9.2 mph - 0.00 in   Overcast
3:56 PM 57.9 °F 54.0 °F 87% 30.12 in 5.0 mi North 10.4 mph - 0.00 in   Overcast
4:56 PM 59.0 °F 50.9 °F 74% 30.12 in 10.0 mi North 10.4 mph - N/A   Overcast
5:56 PM 59.0 °F 50.9 °F 74% 30.11 in 10.0 mi North 10.4 mph - N/A   Overcast
6:56 PM 59.0 °F 50.0 °F 72% 30.12 in 10.0 mi NNE 11.5 mph - N/A   Overcast
7:56 PM 59.0 °F 50.0 °F 72% 30.15 in 10.0 mi NNE 10.4 mph - N/A   Overcast
8:56 PM 59.0 °F 50.0 °F 72% 30.17 in 10.0 mi NNE 8.1 mph - N/A   Overcast
9:56 PM 59.0 °F 50.0 °F 72% 30.18 in 10.0 mi NNE 8.1 mph - N/A   Overcast
10:56 PM 59.0 °F 48.9 °F 69% 30.19 in 10.0 mi NNE 9.2 mph - N/A   Overcast
11:56 PM 59.0 °F 48.9 °F 69% 30.19 in 10.0 mi North 8.1 mph - N/A   Overcast